• Join FlightAware (Why Join?)
  • Login
  • US Flag 
10:41PM EDT


 

Airport Tracker/Info


-or-


 

Live Flight TrackerFlight Track Log ✈ UPS1122 ✈ 27-Apr-2013 ✈ KSDF - KBDL

Flight Track Log - Related Links

Times and Time Zones

All times are in EDT time to prevent confusion due to time zone crossing. See the UPS1122 flight status page for this flight to view local times or setup timezone preferences in your user account.

Time Position Orientation Groundspeed Altitude Reporting Facility
EDT Latitude Longitude Course Direction KTS MPH feet Rate Location/Type
04:41AM 38.1690 -85.7250 142° Southeast 165 190 300  Level FlightAware
04:41AM 38.1520 -85.7190 164° South 154 177 1,600 2,160 Climbing FlightAware
04:42AM 38.1290 -85.7110 165° South 198 228 2,300 2,100 Climbing FlightAware
04:42AM 38.1000 -85.7020 166° South 211 243 3,700 2,280 Climbing FlightAware
04:42AM 38.0790 -85.6840 146° Southeast 236 272 4,400 1,800 Climbing FlightAware
04:43AM 38.0720 -85.6630 113° Southeast 248 285 4,900 2,580 Climbing FlightAware
04:43AM 38.0660 -85.6030 97° East 256 295 6,800 2,640 Climbing FlightAware
04:44AM 38.0620 -85.5580 96° East 266 306 8,000 2,160 Climbing FlightAware
04:44AM 38.0590 -85.5190 96° East 279 321 8,800 2,040 Climbing FlightAware
04:45AM 38.0540 -85.4700 97° East 291 335 9,900 1,560 Climbing FlightAware
04:46AM 38.0460 -85.3850 97° East 338 389 10,800 1,320 Climbing FlightAware
04:46AM 38.0390 -85.3020 96° East 365 420 11,800 1,980 Climbing FlightAware
04:47AM 38.0320 -85.2170 96° East 371 427 13,500 2,280 Climbing FlightAware
04:48AM 38.0240 -85.1180 96° East 382 440 15,100 1,740 Climbing FlightAware
04:48AM 38.0170 -85.0270 96° East 405 466 16,000 1,680 Climbing FlightAware
04:49AM 38.0070 -84.9130 96° East 416 479 17,500 1,920 Climbing FlightAware
04:50AM 37.9990 -84.8180 96° East 427 491 18,800 1,920 Climbing FlightAware
04:50AM 37.9900 -84.7220 97° East 437 503 20,100 1,920 Climbing FlightAware
04:51AM 37.9790 -84.6000 96° East 452 520 21,600 1,860 Climbing FlightAware
04:52AM 37.9820 -84.4550 88° East 454 522 23,200 1,620 Climbing FlightAware
04:53AM 38.0250 -84.3590 60° Northeast 459 528 24,200 1,500 Climbing FlightAware
04:53AM 38.0730 -84.2650 57° Northeast 470 541 25,200 960 Climbing FlightAware
04:54AM 38.1190 -84.1730 58° Northeast 477 549 25,600 1,380 Climbing FlightAware
04:55AM 38.1790 -84.0510 58° Northeast 495 570 27,300 1,380 Climbing FlightAware
04:56AM 38.2360 -83.9370 57° Northeast 500 575 27,800 300 Climbing FlightAware
04:57AM 38.2890 -83.8320 57° Northeast 500 575 27,800  Level FlightAware
04:57AM 38.3320 -83.7480 57° Northeast 500 575 27,800 2,220 Level FlightAware
04:58AM 38.4170 -83.5650 59° Northeast 512 589 31,400 2,220 Climbing FlightAware
04:59AM 38.4590 -83.4780 58° Northeast 512 589 31,400 1,080 Level FlightAware
05:00AM 38.5250 -83.3430 58° Northeast 512 589 33,000 1,200 Climbing FlightAware
05:00AM 38.5660 -83.2580 58° Northeast 512 589 33,000  Level FlightAware
05:01AM 38.6210 -83.1440 58° Northeast 530 610 33,000  Level FlightAware
05:02AM 38.6890 -83.0050 58° Northeast 537 618 33,000  Level FlightAware
05:02AM 38.7460 -82.8860 58° Northeast 538 619 33,000  Level FlightAware
05:03AM 38.7910 -82.7940 58° Northeast 538 619 33,000  Level FlightAware
05:04AM 38.8590 -82.6510 59° Northeast 536 617 33,000  Level FlightAware
05:05AM 38.9280 -82.5030 59° Northeast 536 617 33,000  Level FlightAware
05:05AM 38.9790 -82.3940 59° Northeast 535 616 33,000  Level FlightAware
05:06AM 39.0360 -82.2740 59° Northeast 535 616 33,000  Level FlightAware
05:07AM 39.0870 -82.1650 59° Northeast 534 615 33,000  Level FlightAware
05:07AM 39.1400 -82.0530 59° Northeast 533 613 33,000  Level FlightAware
05:08AM 39.1940 -81.9360 59° Northeast 534 615 33,000  Level FlightAware
05:09AM 39.2470 -81.8220 59° Northeast 534 615 33,000  Level FlightAware
05:10AM 39.3060 -81.6970 59° Northeast 533 613 33,000  Level FlightAware
05:10AM 39.3540 -81.5920 59° Northeast 532 612 33,000  Level FlightAware
05:11AM 39.4070 -81.4780 59° Northeast 531 611 33,000  Level FlightAware
05:12AM 39.4630 -81.3570 59° Northeast 530 610 33,000  Level FlightAware
05:12AM 39.5120 -81.2480 60° Northeast 530 610 33,000  Level FlightAware
05:13AM 39.5700 -81.1220 59° Northeast 529 609 33,000  Level FlightAware
05:14AM 39.6160 -81.0190 60° Northeast 529 609 33,000  Level FlightAware
05:14AM 39.6670 -80.9060 60° Northeast 529 609 33,000  Level FlightAware
05:15AM 39.7230 -80.7810 60° Northeast 530 610 33,000  Level FlightAware
05:16AM 39.7730 -80.6700 60° Northeast 531 611 33,000  Level FlightAware
05:17AM 39.8370 -80.5250 60° Northeast 531 611 33,000  Level FlightAware
05:17AM 39.8860 -80.4170 59° Northeast 531 611 33,000  Level FlightAware
05:18AM 39.9290 -80.3180 60° Northeast 530 610 33,000  Level FlightAware
05:19AM 39.9800 -80.2030 60° Northeast 530 610 33,000  Level FlightAware
05:20AM 40.0490 -80.0460 60° Northeast 524 603 33,000  Level FlightAware
05:20AM 40.0880 -79.9550 61° Northeast 524 603 33,000  Level FlightAware
05:21AM 40.1430 -79.8290 60° Northeast 521 600 33,000  Level FlightAware
05:22AM 40.1970 -79.7050 60° Northeast 516 594 33,000  Level FlightAware
05:22AM 40.2440 -79.5950 61° Northeast 512 589 33,000  Level FlightAware
05:23AM 40.2950 -79.4790 60° Northeast 510 587 33,000  Level FlightAware
05:24AM 40.3410 -79.3710 61° Northeast 509 586 33,000  Level FlightAware
05:24AM 40.3850 -79.2690 60° Northeast 508 585 33,000  Level FlightAware
05:25AM 40.4380 -79.1430 61° Northeast 506 582 33,000  Level FlightAware
05:26AM 40.4860 -79.0310 61° Northeast 507 583 33,000  Level FlightAware
05:27AM 40.5370 -78.9090 61° Northeast 507 583 33,000  Level FlightAware
05:27AM 40.5680 -78.8340 61° Northeast 507 583 33,000  Level FlightAware
05:28AM 40.6160 -78.7200 61° Northeast 506 582 33,000  Level FlightAware
05:29AM 40.6670 -78.5980 61° Northeast 502 578 33,000  Level FlightAware
05:29AM 40.7080 -78.4980 62° Northeast 501 577 33,000  Level FlightAware
05:30AM 40.7520 -78.3920 61° Northeast 499 574 33,000  Level FlightAware
05:31AM 40.8040 -78.2660 61° Northeast 494 568 33,000  Level FlightAware
05:31AM 40.8460 -78.1640 61° Northeast 492 566 33,000  Level FlightAware
05:32AM 40.8900 -78.0560 62° Northeast 491 565 33,000  Level FlightAware
05:33AM 40.9390 -77.9390 61° Northeast 488 562 33,000  Level FlightAware
05:34AM 40.9840 -77.8390 59° Northeast 485 558 33,000  Level FlightAware
05:34AM 41.0380 -77.7190 59° Northeast 484 557 33,000  Level FlightAware
05:35AM 41.0780 -77.6296 59° Northeast 484 557 33,000  Level FlightAware ADS-B
05:35AM 41.1152 -77.5456 60° Northeast 485 558 33,000  Level FlightAware ADS-B
05:36AM 41.1703 -77.4211 60° Northeast 485 558 33,000  Level FlightAware ADS-B
05:36AM 41.2042 -77.3442 60° Northeast 484 557 33,000  Level FlightAware ADS-B
05:37AM 41.2393 -77.2641 60° Northeast 484 557 33,000  Level FlightAware ADS-B
05:38AM 41.2765 -77.1795 60° Northeast 483 556 33,000  Level FlightAware ADS-B
05:38AM 41.3119 -77.0984 60° Northeast 482 555 33,000  Level FlightAware ADS-B
05:39AM 41.3458 -77.0205 60° Northeast 482 555 33,000  Level FlightAware ADS-B
05:39AM 41.3812 -76.9390 60° Northeast 480 552 33,000  Level FlightAware ADS-B
05:40AM 41.4154 -76.8607 60° Northeast 478 550 33,000  Level FlightAware ADS-B
05:40AM 41.4236 -76.8434 58° Northeast 477 549 33,000  Level FlightAware ADS-B
05:40AM 41.4334 -76.8238 56° Northeast 475 547 33,000  Level FlightAware ADS-B
05:40AM 41.4728 -76.7542 53° Northeast 469 540 33,000  Level FlightAware ADS-B
05:41AM 41.5198 -76.6827 49° Northeast 466 536 33,000  Level FlightAware ADS-B
05:41AM 41.5646 -76.6146 49° Northeast 466 536 33,000  Level FlightAware ADS-B
05:42AM 41.6101 -76.5458 48° Northeast 467 537 33,000  Level FlightAware ADS-B
05:42AM 41.6542 -76.4797 48° Northeast 467 537 33,000  Level FlightAware ADS-B
05:43AM 41.6978 -76.4142 48° Northeast 469 540 33,000  Level FlightAware ADS-B
05:44AM 41.7415 -76.3484 48° Northeast 470 541 33,000  Level FlightAware ADS-B
05:44AM 41.7864 -76.2807 48° Northeast 472 543 33,000  Level FlightAware ADS-B
05:45AM 41.8309 -76.2136 48° Northeast 473 544 33,000  Level FlightAware ADS-B
05:45AM 41.8749 -76.1471 48° Northeast 475 547 33,000  Level FlightAware ADS-B
05:46AM 41.9203 -76.0782 48° Northeast 475 547 33,000  Level FlightAware ADS-B
05:46AM 41.9649 -76.0106 48° Northeast 475 547 33,000  Level FlightAware ADS-B
05:47AM 42.0157 -75.9334 48° Northeast 476 548 33,000  Level FlightAware ADS-B
05:48AM 42.0710 -75.8480 49° Northeast 476 548 33,000  Level FlightAware
05:48AM 42.1290 -75.7600 48° Northeast 476 548 33,000  Level FlightAware
05:49AM 42.1980 -75.6550 48° Northeast 478 550 33,000 -180 Level FlightAware
05:50AM 42.2730 -75.5390 49° Northeast 468 539 32,800 -540 Descending FlightAware
05:50AM 42.3300 -75.4510 49° Northeast 457 526 32,300 -900 Descending FlightAware
05:51AM 42.3930 -75.3520 49° Northeast 444 511 31,600 -1,380 Descending FlightAware
05:52AM 42.4440 -75.2700 50° Northeast 441 507 30,400 -1,920 Descending FlightAware
05:52AM 42.4690 -75.1630 72° East 444 511 29,100 -1,200 Descending FlightAware
05:53AM 42.4740 -75.0440 87° East 444 511 28,500 -420 Descending FlightAware
05:54AM 42.4810 -74.9490 84° East 444 511 28,500  Level FlightAware
05:55AM 42.4870 -74.8550 85° East 444 511 28,500  Level FlightAware
05:55AM 42.4940 -74.7370 85° East 444 511 28,500  Level FlightAware
05:56AM 42.5000 -74.6430 85° East 444 511 28,500  Level FlightAware
05:57AM 42.5060 -74.5480 85° East 444 511 28,500 -5,220 Level FlightAware
05:58AM 42.4692 -74.3936 85° East 398 458 21,000 -5,040 Descending Boston Center
05:59AM 42.4447 -74.2239 101° East 387 445 19,600 -1,320 Descending Boston Center
06:00AM 42.4219 -74.0825 102° East 387 445 18,400 -960 Descending Boston Center
06:01AM 42.4008 -73.9442 102° East 387 445 17,500 -1,080 Descending Boston Center
06:02AM 42.3781 -73.7778 100° East 375 432 16,100 -1,320 Descending Boston Center
06:02AM 42.3661 -73.7103 103° East 366 421 15,500 -900 Descending Boston Center
06:03AM 42.3606 -73.6594 98° East 365 420 15,200 -1,140 Descending Boston Center
06:03AM 42.3447 -73.5694 103° East 358 412 14,400 -1,200 Descending Boston Center
06:04AM 42.3389 -73.5186 99° East 354 407 14,000 -1,020 Descending Boston Center
06:04AM 42.3231 -73.4397 105° East 352 405 13,400 -900 Descending Boston Center
06:05AM 42.3192 -73.3947 97° East 347 399 13,100 -1,140 Descending Boston Center
06:05AM 42.2950 -73.3186 113° Southeast 348 400 12,300 -1,200 Descending Boston Center
06:06AM 42.2764 -73.2958 138° Southeast 327 376 11,900 -1,380 Descending Boston Center
06:06AM 42.2203 -73.2475 147° Southeast 329 379 10,900 -1,800 Descending Boston Center
06:07AM 42.1956 -73.2192 140° Southeast 321 369 10,100 -2,220 Descending Boston Center
06:07AM 42.1519 -73.1850 150° Southeast 298 343 8,700 -2,220 Descending Boston Center
06:08AM 42.1356 -73.1653 138° Southeast 304 350 7,900 -2,100 Descending Boston Center
06:08AM 42.0858 -73.1228 148° Southeast 286 329 6,600 -1,920 Descending Boston Center
06:09AM 42.0631 -73.1000 143° Southeast 290 334 6,000 -1,380 Descending Boston Center
06:09AM 42.0236 -73.0661 147° Southeast 282 325 5,200 -1,320 Descending Boston Center
06:10AM 42.0069 -73.0492 143° Southeast 285 328 4,700 -1,140 Descending Boston Center
06:10AM 41.9550 -73.0097 151° Southeast 275 316 4,100 -720 Descending Boston Center
06:11AM 41.9489 -72.9983 126° Southeast 280 322 4,000 -840 Descending Boston Center
06:11AM 41.8928 -72.9506 148° Southeast 268 308 3,300 -1,020 Descending Boston Center
06:12AM 41.8825 -72.9336 129° Southeast 274 315 3,000 -240 Descending Boston Center
06:12AM 41.8514 -72.8917 135° Southeast 210 242 3,100  Climbing Boston Center
06:13AM 41.8514 -72.8889 90° East 254 292 3,000 -900 Descending Boston Center
06:13AM 41.8536 -72.8386 87° East 150 173 2,200 -1,140 Descending Boston Center
06:14AM 41.8578 -72.8247 68° East 155 178 1,900 -300 Descending Boston Center
06:14AM 41.8683 -72.7914 67° East 132 152 1,900 -120 Level Boston Center
06:15AM 41.8725 -72.7831 56° Northeast 126 145 1,800 -420 Descending Boston Center
06:15AM 41.8894 -72.7553 51° Northeast 126 145 1,500 -600 Descending Boston Center
06:16AM 41.8956 -72.7469 45° Northeast 120 138 1,200 -720 Descending Boston Center
06:16AM 41.9144 -72.7247 41° Northeast 123 142 800 -720 Descending Boston Center
06:17AM 41.9186 -72.7164 56° Northeast 120 138 500 -1,020 Descending Boston Center
06:19AM 41.9333 -72.6833 50° Northeast  Level FlightAware Approximate
06:26AM 41.9392 -72.6834 50° Northeast  Level Estimated
06:27AM 41.9333 -72.6833 50° Northeast  Level FlightAware Approximate